Showing default

EXPLORER 31 (ISIS-X), 1806

Orbit data source: Space-Track

EXPLORER 31 (ISIS-X), 1806 is a payload satellite owned by GSFC (US) in LEO that was launched on Mon, 29 Nov 1965 UTC via a THOR SLV-2 AGENA B launch vehicle from the Air Force Western Test Range (AFWTR). Payload-class satellites include a variety of spacecraft equipped with specific instruments for various scientific and technological missions. These include communications satellites like Starlink; space stations such as the ISS; scientific satellites like the Hubble; Earth observation satellites from companies like Planet Labs, Umbra, and HawkEye 360; GPS; miniature CubeSats for education and research; and military/defense satellites.

Loading next visibility...
Identifier
1806, 1965-098B
Orbit
LEO
Country
Flag of USUS
Related business
Manufacturer
APL
Mission
Spacecraft
Bus & Motor
DME, Unknown motor
Mass
98 kg wet, 98 kg dry
Launch date (UTC)
1965-11-29 (60 years ago)
Launch vehicle
THOR SLV-2 AGENA B
Launch site
Air Force Western Test Range (AFWTR)
Object type
Payload
Rocket body
Debris
Shape & HBR
Unknown
Radar Cross Section
Medium (>0.1 m² and <1 m²)

Expand to show TLE details & history
Last TLE update: 18 hours ago

TLE from 18 hours ago
0 EXPLORER 31 (ISIS-X)
1 01806U 65098B   25309.62482856 -.00000180  00000-0 -63927-4 0  9995
2 01806  79.7812 174.1829 1423587 212.6705 137.7997 12.08105867621691
Epoch: 2025-11-05T14:59Z
TLE epoch observation values (Epoch: 2025-11-05T14:59:45.187Z)
Latitude
0.00002°
Longitude
-95.85019°
Altitude
2,556.468 km
Speed
6.291 km/s
True Right ascension
11h 36m 43s
True Declination
0° 00' 00"
Sunlit
Object was in daylight at epoch
Visualization orbit readout
Latitude
Unknown
Longitude
Unknown
Altitude
Unknown
Speed
Unknown
Apparent Right ascension
Unknown
Apparent Declination
Unknown
Sunlit
N/A
Visualization observer readout
Local Sidereal Time
05:04:59
Azimuth
Unknown
Elevation
Unknown
Doppler factor
Unknown
Orbital elements
Apogee altitude
2,783.981 km
Perigee altitude
500.447 km
Semi-major axis
8,020.351 km
Eccentricity
0.14236
Inclination
79.7812°
RAAN
174.1829°
Arg. of periapsis
212.6705°
True anomaly
147.43185°
Mean anomaly
137.7997°
Eccentric anomaly
142.73815°
Mean motion
3.02171 °/min
Orbital period
119.14 mins
BSTAR
-0.000063927
Loading maneuver chart data...
Computing Atmospheric mass density...
Loading historical data...
Loading historical data...
Loading historical data...
Loading historical data...
Loading historical data...
Loading historical data...
Loading historical data...

Documentation

Showing up to 5 results
|